Tracking 28126 objects as of 2-Oct-2023
HD Live streaming from Space Station
objects crossing your sky now

STARLINK-30172

Track STARLINK-30172 now!
10-day predictions
STARLINK-30172 is classified as:


NORAD ID: 57410
Int'l Code: 2023-102G
Perigee: 565.4 km
Apogee: 567.0 km
Inclination: 43.0 °
Period: 95.8 minutes
Semi major axis: 6937 km
RCS: Unknown
Launch date: July 20, 2023
Source: United States (US)
Launch site: AIR FORCE WESTERN TEST RANGE (AFWTR)
Your satellite tracking list
Your tracking list is empty




NASA's NSSDC Master Catalog

Two Line Element Set (TLE):
1 57410U 23102G   23274.73144103  .00002551  00000-0  20378-3 0  9992
2 57410  43.0016  44.6411 0001100 287.2250  72.8472 15.02544038 12365
Source of the keplerian elements: AFSPC